Mojave, CA

12:54 PM PST on December 11, 2019 (GMT -0800)
Mojave

Weather History for KMHV - October, 2019

Change the Weather History Date:

Friday, October 11, 2019

  Actual Average Record
Temperature  
Mean Temperature 54 °F -  
Max Temperature 69 °F 80 °F 94 °F (1965)
Min Temperature 39 °F 50 °F 36 °F (1969)
Degree Days  
Heating Degree Days 11    
Growing Degree Days 4 (Base 50)    
Moisture  
Dew Point -7 °F    
Average Humidity 8    
Maximum Humidity 13    
Minimum Humidity 4    
Precipitation  
Precipitation 0.00 in - - ()
Sea Level Pressure  
Sea Level Pressure 30.12 in    
Wind  
Wind Speed 8 mph (NE)    
Max Wind Speed 16 mph    
Max Gust Speed 22 mph    
Visibility 10 miles    
Events      
Averages and records for this station are not official NWS values.
T = Trace of Precipitation, MM = Missing Value Source: NWS Daily Summary

Daily Weather History Graph

Daily Weather History Graph

Search for Another Location

Airport or City:

Astronomy

Oct. 11, 2019 Rise Set
Actual Time 6:55 AM PDT 6:22 PM PDT
Civil Twilight 6:29 AM PDT 6:48 PM PDT
Nautical Twilight 6:00 AM PDT 7:17 PM PDT
Astronomical Twilight 5:31 AM PDT 7:46 PM PDT
Moon 5:47 PM PDT 4:48 AM PDT
Length of Visible Light 12h 18m
Length of Day
11h 27m
Waxing Gibbous, 96% of the Moon is Illuminated
Oct 11
Waxing Gibbous
Oct 13
Full
Oct 21
Last Quarter
Oct 27
New
Nov 4
First Quarter

Hourly Weather History & Observations

Time (PDT) Temp. Windchill Dew Point Humidity Pressure Visibility Wind Dir Wind Speed Gust Speed Precip Events Conditions
12:20 AM 50.0 °F - -9.4 °F 8% 30.15 in 10.0 mi North 10.4 mph - N/A   Partly Cloudy
12:40 AM 50.0 °F - -9.4 °F 8% 30.15 in 10.0 mi North 10.4 mph - N/A   Partly Cloudy
1:00 AM 48.2 °F - -9.4 °F 9% 30.16 in 10.0 mi North 9.2 mph - N/A   Clear
1:20 AM 48.2 °F - -9.4 °F 9% 30.16 in 10.0 mi NNE 8.1 mph - N/A   Partly Cloudy
1:40 AM 50.0 °F - -9.4 °F 8% 30.16 in 10.0 mi North 9.2 mph - N/A   Partly Cloudy
2:00 AM 50.0 °F - -9.4 °F 8% 30.16 in 10.0 mi North 8.1 mph - N/A   Partly Cloudy
2:20 AM 48.2 °F - -9.4 °F 9% 30.16 in 10.0 mi NNE 8.1 mph - N/A   Partly Cloudy
2:40 AM 48.2 °F - -9.4 °F 9% 30.16 in 10.0 mi NNE 8.1 mph - N/A   Partly Cloudy
3:00 AM 48.2 °F - -9.4 °F 9% 30.15 in 10.0 mi NE 6.9 mph - N/A   Partly Cloudy
3:20 AM 48.2 °F - -7.6 °F 10% 30.15 in 10.0 mi NE 5.8 mph - N/A   Partly Cloudy
3:40 AM 46.4 °F 42.9 °F -7.6 °F 10% 30.15 in 10.0 mi NNE 6.9 mph - N/A   Clear
4:00 AM 46.4 °F 44.3 °F -7.6 °F 10% 30.14 in 10.0 mi NNE 4.6 mph - N/A   Clear
4:20 AM 42.8 °F 40.1 °F -7.6 °F 12% 30.15 in 10.0 mi NNE 4.6 mph - N/A   Clear
4:40 AM 41.0 °F 37.1 °F -9.4 °F 12% 30.15 in 10.0 mi North 5.8 mph - N/A   Partly Cloudy
5:00 AM 41.0 °F 37.1 °F -9.4 °F 12% 30.15 in 10.0 mi NNE 5.8 mph - N/A   Partly Cloudy
5:20 AM 41.0 °F 38.0 °F -7.6 °F 13% 30.15 in 10.0 mi North 4.6 mph - N/A   Partly Cloudy
5:40 AM 41.0 °F - -7.6 °F 13% 30.16 in 10.0 mi Calm Calm - N/A   Scattered Clouds
6:00 AM 41.0 °F - -9.4 °F 12% 30.16 in 8.0 mi Calm Calm - N/A   Scattered Clouds
6:20 AM 41.0 °F 38.0 °F -7.6 °F 13% 30.16 in 3.0 mi NE 4.6 mph - N/A   Haze
6:40 AM 42.8 °F 39.3 °F -9.4 °F 11% 30.16 in 7.0 mi NNE 5.8 mph - N/A   Clear
7:00 AM 39.2 °F 35.9 °F -9.4 °F 12% 30.16 in 3.0 mi NE 4.6 mph - N/A   Haze
7:20 AM 41.0 °F - -7.6 °F 13% 30.17 in 4.0 mi Calm Calm - N/A   Haze
7:40 AM 44.6 °F - -7.6 °F 11% 30.17 in 5.0 mi Calm Calm - N/A   Haze
8:00 AM 50.0 °F - -5.8 °F 10% 30.18 in 8.0 mi Calm Calm - N/A   Clear
8:20 AM 51.8 °F - -5.8 °F 9% 30.19 in 10.0 mi Calm Calm - N/A   Clear
8:40 AM 53.6 °F - -4.0 °F 9% 30.19 in 10.0 mi East 6.9 mph - N/A   Clear
9:00 AM 55.4 °F - -2.2 °F 9% 30.19 in 10.0 mi East 8.1 mph - N/A   Clear
9:20 AM 55.4 °F - -0.4 °F 10% 30.20 in 10.0 mi East 9.2 mph - N/A   Clear
9:40 AM 57.2 °F - -0.4 °F 10% 30.20 in 10.0 mi East 9.2 mph - N/A   Clear
10:00 AM 57.2 °F - -0.4 °F 10% 30.20 in 10.0 mi East 9.2 mph - N/A   Clear
10:20 AM 59.0 °F - -0.4 °F 9% 30.19 in 10.0 mi East 10.4 mph - N/A   Clear
10:40 AM 59.0 °F - -0.4 °F 9% 30.19 in 10.0 mi East 9.2 mph - N/A   Clear
11:00 AM 60.8 °F - -0.4 °F 8% 30.18 in 10.0 mi East 9.2 mph - N/A   Clear
11:20 AM 60.8 °F - -0.4 °F 8% 30.17 in 10.0 mi NE 9.2 mph - N/A   Clear
11:40 AM 62.6 °F - -0.4 °F 8% 30.17 in 10.0 mi ENE 8.1 mph 16.1 mph N/A   Clear
12:00 PM 62.6 °F - -0.4 °F 8% 30.16 in 10.0 mi NE 11.5 mph - N/A   Clear
12:20 PM 64.4 °F - -2.2 °F 7% 30.15 in 10.0 mi NE 8.1 mph 16.1 mph N/A   Clear
12:40 PM 64.4 °F - -2.2 °F 7% 30.14 in 10.0 mi East 10.4 mph - N/A   Clear
1:00 PM 66.2 °F - -2.2 °F 6% 30.13 in 10.0 mi NE 9.2 mph 16.1 mph N/A   Clear
1:20 PM 68.0 °F - -2.2 °F 6% 30.12 in 10.0 mi ENE 10.4 mph 18.4 mph N/A   Clear
1:40 PM 68.0 °F - -4.0 °F 6% 30.11 in 10.0 mi NE 13.8 mph - N/A   Clear
2:00 PM 68.0 °F - -4.0 °F 6% 30.09 in 10.0 mi NE 12.7 mph - N/A   Clear
2:20 PM 68.0 °F - -7.6 °F 5% 30.08 in 10.0 mi NE 11.5 mph - N/A   Clear
2:40 PM 69.8 °F - -7.6 °F 4% 30.07 in 10.0 mi East 16.1 mph 21.9 mph N/A   Clear
3:00 PM 69.8 °F - -7.6 °F 4% 30.07 in 10.0 mi NE 10.4 mph 17.3 mph N/A   Clear
3:20 PM 69.8 °F - -7.6 °F 4% 30.07 in 10.0 mi East 13.8 mph 19.6 mph N/A   Clear
3:40 PM 69.8 °F - -9.4 °F 4% 30.06 in 10.0 mi East 10.4 mph 17.3 mph N/A   Clear
4:00 PM 69.8 °F - -9.4 °F 4% 30.05 in 10.0 mi East 6.9 mph 12.7 mph N/A   Clear
4:20 PM 69.8 °F - -7.6 °F 4% 30.05 in 10.0 mi ENE 10.4 mph - N/A   Unknown
4:40 PM 69.8 °F - -9.4 °F 4% 30.05 in 10.0 mi ENE 10.4 mph 17.3 mph N/A   Unknown
5:00 PM 69.8 °F - -9.4 °F 4% 30.04 in 10.0 mi East 11.5 mph - N/A   Clear
5:20 PM 69.8 °F - -9.4 °F 4% 30.04 in 10.0 mi East 10.4 mph - N/A   Clear
5:40 PM 68.0 °F - -9.4 °F 4% 30.04 in 10.0 mi East 10.4 mph - N/A   Clear
6:00 PM 68.0 °F - -9.4 °F 4% 30.03 in 10.0 mi East 8.1 mph - N/A   Clear
6:20 PM 66.2 °F - -9.4 °F 5% 30.03 in 10.0 mi ENE 6.9 mph - N/A   Clear
6:40 PM 62.6 °F - -9.4 °F 5% 30.03 in 8.0 mi NE 4.6 mph - N/A   Clear
7:00 PM 57.2 °F - -11.2 °F 6% 30.03 in 10.0 mi NNE 5.8 mph - N/A   Clear
7:20 PM 57.2 °F - -9.4 °F 6% 30.04 in 10.0 mi North 6.9 mph - N/A   Clear
7:40 PM 55.4 °F - -11.2 °F 6% 30.04 in 10.0 mi North 8.1 mph - N/A   Clear
8:00 PM 53.6 °F - -11.2 °F 7% 30.04 in 10.0 mi North 6.9 mph - N/A   Clear
8:40 PM 51.8 °F - -11.2 °F 7% 30.05 in 10.0 mi North 6.9 mph - N/A   Clear
9:00 PM 50.0 °F - -11.2 °F 8% 30.05 in 10.0 mi North 9.2 mph - N/A   Clear
9:20 PM 51.8 °F - -11.2 °F 7% 30.05 in 10.0 mi North 9.2 mph - N/A   Clear
9:40 PM 48.2 °F - -11.2 °F 8% 30.06 in 10.0 mi North 9.2 mph - N/A   Clear
10:00 PM 48.2 °F - -11.2 °F 8% 30.06 in 10.0 mi NNW 9.2 mph - N/A   Scattered Clouds
10:20 PM 48.2 °F - -11.2 °F 8% 30.06 in 8.0 mi NNW 9.2 mph - N/A   Mostly Cloudy
10:40 PM 48.2 °F - -11.2 °F 8% 30.05 in 10.0 mi NNW 9.2 mph - N/A   Mostly Cloudy
11:00 PM 48.2 °F - -9.4 °F 9% 30.05 in 10.0 mi NNW 9.2 mph - N/A   Overcast
11:20 PM 48.2 °F - -9.4 °F 9% 30.05 in 10.0 mi NNW 10.4 mph - N/A   Overcast
11:40 PM 46.4 °F 41.5 °F -9.4 °F 9% 30.04 in 10.0 mi NNW 10.4 mph - N/A   Overcast